Warning: Javascript must be enabled to use all the features on this page!


Page Loading - Please Wait...

* We've detected you're using a mobile device. Find our mobile dedicated web site here.
Click to hideNews Bulletins
Click to hide state-specific text
Real-time Data from Rapid Deployment Gages associated with Hurricane Florence can be found here.

USGS 02087570 NEUSE RIVER AT SMITHFIELD, NC

PROVISIONAL DATA SUBJECT TO REVISION

Click to hidestation-specific text
Corps of Engineers Logo This station is operated in cooperation with the U.S. Army Corps of Engineers.

Forecasts for gage height (stage) are available for this station through the National Weather Service's River Forecast Center.

Boating safety tips
This station managed by the South Atlantic WSC Raleigh Field Office.

Available Parameters Available Period
All 2 Available Parameters for this site
  
00060 Discharge 1985-10-01  1991-09-30
00065 Gage height 2007-10-01  2018-12-19

Graph
Graph w/ stats
Graph w/o stats
Graph w/ (up to 3) parms
Table
Tab-separated
Days  (7)
 

  -- or --
Begin date
 

End date
 

Summary of all available data for this site
Instantaneous-data availability statement
Gage height, feet
TIMEDec 12Dec 13Dec 14Dec 15Dec 16Dec 17Dec 18Dec 19
00:00 EST15.01P  13.92P  12.54P  11.10P  15.19P  13.14P  11.48P  13.94P  
00:15 EST14.99P  13.91P  12.52P  11.17P  15.19P  13.12P  11.47P  13.96P  
00:30 EST14.97P  13.90P  12.50P  11.24P  15.19P  13.10P  11.45P   
00:45 EST14.96P  13.89P  12.48P  11.30P  15.17P  13.08P  11.43P   
01:00 EST14.94P  13.88P  12.45P  11.38P  15.16P  13.06P  11.42P   
01:15 EST14.93P  13.86P  12.42P  11.44P  15.15P  13.04P  11.39P   
01:30 EST14.90P  13.86P  12.40P  11.52P  15.14P  13.02P  11.38P   
01:45 EST14.89P  13.85P  12.37P  11.58P  15.12P  13.00P  11.36P   
02:00 EST14.87P  13.84P  12.35P  11.66P  15.12P  12.98P  11.34P   
02:15 EST14.86P  13.83P  12.32P  11.72P  15.10P  12.97P  11.33P   
02:30 EST14.84P  13.81P  12.29P  11.79P  15.09P  12.95P  11.31P   
02:45 EST14.83P  13.81P  12.27P  11.87P  15.08P  12.92P  11.29P   
03:00 EST14.81P  13.80P  12.23P  11.94P  15.06P  12.91P  11.28P   
03:15 EST14.80P  13.79P  12.20P  12.01P  15.06P  12.90P  11.27P   
03:30 EST14.78P  13.77P  12.18P  12.08P  15.04P  12.88P  11.25P   
03:45 EST14.77P  13.77P  12.14P  12.15P  15.02P  12.86P  11.24P   
04:00 EST14.75P  13.76P  12.12P  12.23P  15.01P  12.84P  11.23P   
04:15 EST14.73P  13.74P  12.09P  12.31P  14.98P  12.82P  11.22P   
04:30 EST14.73P  13.74P  12.05P  12.39P  14.97P  12.80P  11.22P   
04:45 EST14.70P  13.73P  12.03P  12.46P  14.95P  12.77P  11.22P   
05:00 EST14.69P  13.71P  12.00P  12.54P  14.93P  12.75P  11.22P   
05:15 EST14.68P  13.69P  11.96P  12.62P  14.91P  12.74P  11.23P   
05:30 EST14.67P  13.69P  11.93P  12.69P  14.89P  12.72P  11.25P   
05:45 EST14.65P  13.68P  11.89P  12.77P  14.87P  12.70P  11.25P   
06:00 EST14.64P  13.67P  11.86P  12.85P  14.85P  12.68P  11.28P   
06:15 EST14.63P  13.65P  11.82P  12.92P  14.83P  12.67P  11.30P   
06:30 EST14.62P  13.64P  11.78P  13.00P  14.80P  12.65P  11.32P   
06:45 EST14.60P  13.63P  11.74P  13.07P  14.79P  12.63P  11.35P   
07:00 EST14.60P  13.62P  11.70P  13.15P  14.77P  12.61P  11.38P   
07:15 EST14.59P  13.61P  11.66P  13.21P  14.74P  12.59P  11.42P   
07:30 EST14.57P  13.60P  11.62P  13.28P  14.72P  12.57P  11.46P   
07:45 EST14.56P  13.59P  11.58P  13.36P  14.70P  12.56P  11.50P   
08:00 EST14.55P  13.57P  11.54P  13.43P  14.67P  12.54P  11.55P   
08:15 EST14.54P  13.56P  11.50P  13.49P  14.65P  12.52P  11.58P   
08:30 EST14.53P  13.55P  11.46P  13.55P  14.62P  12.51P  11.64P   
08:45 EST14.52P  13.54P  11.42P  13.61P  14.58P  12.49P  11.69P   
09:00 EST14.51P  13.52P  11.38P  13.68P  14.57P  12.48P  11.75P   
09:15 EST14.50P  13.51P  11.35P  13.73P  14.53P  12.46P  11.79P   
09:30 EST14.48P  13.50P  11.31P  13.80P  14.53P  12.45P  11.86P   
09:45 EST14.47P  13.49P  11.26P  13.86P  14.51P  12.43P  11.91P   
10:00 EST14.46P  13.48P  11.22P  13.92P  14.47P  12.40P  11.97P   
10:15 EST14.45P  13.47P  11.18P  13.98P  14.45P  12.39P  12.01P   
10:30 EST14.44P  13.46P  11.14P  14.04P  14.40P  12.37P  12.07P   
10:45 EST14.44P  13.45P  11.10P  14.08P  14.40P  12.36P  12.12P   
11:00 EST14.44P  13.44P  11.06P  14.13P  14.38P  12.35P  12.17P   
11:15 EST14.43P  13.42P  11.01P  14.18P  14.35P  12.34P  12.24P   
11:30 EST14.42P  13.41P  10.97P  14.22P  14.33P  12.33P  12.28P   
11:45 EST14.40P  13.39P  10.92P  14.26P  14.31P  12.31P  12.34P   
12:00 EST14.39P  13.39P  10.88P  14.31P  14.27P  12.31P  12.39P   
12:15 EST14.39P  13.38P  10.83P  14.34P  14.25P  12.29P  12.45P   
12:30 EST14.38P  13.37P  10.79P  14.40P  14.23P  12.27P  12.50P   
12:45 EST14.37P  13.37P  10.74P  14.44P  14.21P  12.25P  12.55P   
13:00 EST14.36P  13.35P  10.70P  14.47P  14.20P  12.21P  12.60P   
13:15 EST14.36P  13.33P  10.65P  14.51P  14.18P  12.23P  12.64P   
13:30 EST14.34P  13.32P  10.61P  14.56P  14.17P  12.21P  12.70P   
13:45 EST14.33P  13.30P  10.57P  14.58P  14.13P  12.19P  12.75P   
14:00 EST14.33P  13.29P  10.52P  14.63P  14.11P  12.18P  12.79P   
14:15 EST14.32P  13.28P  10.49P  14.66P  14.09P  12.14P  12.84P   
14:30 EST14.31P  13.26P  10.45P  14.69P  14.06P  12.13P  12.88P   
14:45 EST14.29P  13.25P  10.42P  14.73P  14.03P  12.13P  12.93P   
15:00 EST14.29P  13.23P  10.39P  14.76P  14.01P  12.08P  12.97P   
15:15 EST14.28P  13.21P  10.36P  14.80P  13.98P  12.09P  13.02P   
15:30 EST14.27P  13.20P  10.33P  14.82P  13.95P  12.08P  13.06P   
15:45 EST14.25P  13.18P  10.30P  14.84P  13.93P  12.06P  13.09P   
16:00 EST14.24P  13.17P  10.28P  14.87P  13.89P  12.05P  13.13P   
16:15 EST14.23P  13.15P  10.25P  14.90P  13.87P  12.03P  13.16P   
16:30 EST14.21P  13.13P  10.22P  14.92P  13.85P  12.02P  13.21P   
16:45 EST14.21P  13.11P  10.20P  14.94P  13.82P  12.00P  13.24P   
17:00 EST14.20P  13.09P  10.18P  14.96P  13.79P  11.98P  13.26P   
17:15 EST14.20P  13.06P  10.16P  15.00P  13.77P  11.96P  13.29P   
17:30 EST14.19P  13.03P  10.15P  15.01P  13.74P  11.94P  13.31P   
17:45 EST14.18P  13.02P  10.14P  15.05P  13.70P  11.91P  13.34P   
18:00 EST14.17P  12.99P  10.13P  15.07P  13.69P  11.89P  13.36P   
18:15 EST14.16P  12.98P  10.14P  15.08P  13.66P  11.86P  13.39P   
18:30 EST14.14P  12.96P  10.14P  15.09P  13.64P  11.85P  13.42P   
18:45 EST14.13P  12.95P  10.15P  15.11P  13.61P  11.83P  13.46P   
19:00 EST14.13P  12.93P  10.16P  15.13P  13.59P  11.81P  13.49P   
19:15 EST14.11P  12.91P  10.17P  15.15P  13.57P  11.79P  13.52P   
19:30 EST14.10P  12.89P  10.19P  15.16P  13.54P  11.78P  13.55P   
19:45 EST14.09P  12.88P  10.22P  15.17P  13.52P  11.77P  13.57P   
20:00 EST14.08P  12.86P  10.25P  15.19P  13.49P  11.75P  13.60P   
20:15 EST14.07P  12.84P  10.29P  15.20P  13.47P  11.73P  13.62P   
20:30 EST14.06P  12.83P  10.33P  15.20P  13.45P  11.71P  13.65P   
20:45 EST14.05P  12.81P  10.37P  15.21P  13.43P  11.70P  13.67P   
21:00 EST14.04P  12.79P  10.41P  15.21P  13.39P  11.68P  13.70P   
21:15 EST14.03P  12.77P  10.46P  15.22P  13.38P  11.67P  13.72P   
21:30 EST14.02P  12.75P  10.52P  15.21P  13.35P  11.65P  13.73P   
21:45 EST14.01P  12.73P  10.57P  15.21P  13.33P  11.63P  13.76P   
22:00 EST14.01P  12.71P  10.63P  15.21P  13.32P  11.62P  13.78P   
22:15 EST13.99P  12.69P  10.68P  15.21P  13.29P  11.60P  13.80P   
22:30 EST13.98P  12.67P  10.74P  15.22P  13.27P  11.58P  13.81P   
22:45 EST13.97P  12.65P  10.79P  15.23P  13.25P  11.56P  13.85P   
23:00 EST13.96P  12.63P  10.86P  15.21P  13.23P  11.55P  13.86P   
23:15 EST13.95P  12.61P  10.92P  15.20P  13.20P  11.53P  13.89P   
23:30 EST13.94P  12.58P  10.98P  15.20P  13.18P  11.52P  13.90P   
23:45 EST13.93P  12.56P  11.04P  15.20P  13.16P  11.49P  13.92P   
COUNT969696969696962
MAX15.0113.9212.5415.2315.1913.1413.9213.96
MIN13.9312.5610.1311.1013.1611.4911.2213.94

Explanation
  P  Provisional data subject to revision.